Time,TemperatureF,DewpointF,PressureIn,WindDirection,WindDirectionDegrees,WindSpeedMPH,WindSpeedGustMPH,Humidity,HourlyPrecipIn,Conditions,Clouds,dailyrainin,SoftwareType,DateUTC
2013-04-21 00:01:00,47.5,36.3,30.19,NNW,344,0.0,6.0,65,0.00,,,0.00,LWC V2.10 B1702,2013-04-21 04:01:00,
2013-04-21 00:06:00,47.6,36.4,30.20,NNW,330,3.0,4.0,65,0.00,,,0.00,LWC V2.10 B1702,2013-04-21 04:06:00,
2013-04-21 00:11:00,47.8,36.2,30.20,North,355,1.0,4.0,64,0.00,,,0.00,LWC V2.10 B1702,2013-04-21 04:11:00,
2013-04-21 00:16:00,47.9,35.5,30.20,NNW,346,0.0,6.0,62,0.00,,,0.00,LWC V2.10 B1702,2013-04-21 04:16:00,
2013-04-21 00:21:00,48.0,35.6,30.21,NW,312,3.0,5.0,62,0.00,,,0.00,LWC V2.10 B1702,2013-04-21 04:21:00,
2013-04-21 00:26:00,48.0,35.2,30.20,North,5,5.0,5.0,61,0.00,,,0.00,LWC V2.10 B1702,2013-04-21 04:26:00,
2013-04-21 00:31:00,47.9,35.5,30.21,NNE,30,2.0,5.0,62,0.00,,,0.00,LWC V2.10 B1702,2013-04-21 04:31:00,
2013-04-21 00:36:00,47.7,34.9,30.21,NE,35,1.0,7.0,61,0.00,,,0.00,LWC V2.10 B1702,2013-04-21 04:36:00,
2013-04-21 00:41:00,47.6,34.0,30.22,NNW,344,6.0,8.0,59,0.00,,,0.00,LWC V2.10 B1702,2013-04-21 04:41:00,
2013-04-21 00:46:00,47.6,34.0,30.22,North,355,4.0,6.0,59,0.00,,,0.00,LWC V2.10 B1702,2013-04-21 04:46:00,
2013-04-21 00:51:00,47.5,33.9,30.22,NNW,338,3.0,4.0,59,0.00,,,0.00,LWC V2.10 B1702,2013-04-21 04:51:00,
2013-04-21 00:56:00,47.3,34.1,30.23,NNE,28,4.0,12.0,60,0.00,,,0.00,LWC V2.10 B1702,2013-04-21 04:56:00,
2013-04-21 01:01:00,47.0,33.8,30.23,North,0,2.0,7.0,60,0.00,,,0.00,LWC V2.10 B1702,2013-04-21 05:01:00,
2013-04-21 01:06:00,46.9,33.3,30.24,North,0,4.0,12.0,59,0.00,,,0.00,LWC V2.10 B1702,2013-04-21 05:06:00,
2013-04-21 01:11:00,46.7,33.6,30.24,NNW,335,4.0,7.0,60,0.00,,,0.00,LWC V2.10 B1702,2013-04-21 05:11:00,
2013-04-21 01:16:00,46.5,32.5,30.25,North,5,2.0,7.0,58,0.00,,,0.00,LWC V2.10 B1702,2013-04-21 05:16:00,
2013-04-21 01:21:00,46.3,31.9,30.25,NNW,348,4.0,6.0,57,0.00,,,0.00,LWC V2.10 B1702,2013-04-21 05:21:00,
2013-04-21 01:26:00,46.0,31.6,30.24,NNW,348,7.0,7.0,57,0.00,,,0.00,LWC V2.10 B1702,2013-04-21 05:26:00,
2013-04-21 01:31:00,45.8,31.0,30.25,NNW,342,7.0,9.0,56,0.00,,,0.00,LWC V2.10 B1702,2013-04-21 05:31:00,
2013-04-21 01:36:00,45.7,30.0,30.25,NNW,340,4.0,9.0,54,0.00,,,0.00,LWC V2.10 B1702,2013-04-21 05:36:00,
2013-04-21 01:39:00,45.6,29.9,30.25,NNE,15,2.0,5.0,54,0.00,,,0.00,LWC V2.10 B1702,2013-04-21 05:39:00,
2013-04-21 01:44:00,45.4,31.1,30.25,NNW,331,4.0,6.0,57,0.00,,,0.00,LWC V2.10 B1702,2013-04-21 05:44:00,
2013-04-21 01:49:00,45.2,30.4,30.25,NNW,340,1.0,7.0,56,0.00,,,0.00,LWC V2.10 B1702,2013-04-21 05:49:00,
2013-04-21 01:55:00,45.1,30.4,30.25,North,355,8.0,8.0,56,0.00,,,0.00,LWC V2.10 B1702,2013-04-21 05:55:00,
2013-04-21 02:00:00,44.9,29.7,30.25,North,355,4.0,7.0,55,0.00,,,0.00,LWC V2.10 B1702,2013-04-21 06:00:00,
2013-04-21 02:05:00,44.7,29.1,30.25,North,355,8.0,8.0,54,0.00,,,0.00,LWC V2.10 B1702,2013-04-21 06:05:00,
2013-04-21 02:10:00,44.6,29.4,30.26,WNW,290,3.0,9.0,55,0.00,,,0.00,LWC V2.10 B1702,2013-04-21 06:10:00,
2013-04-21 02:15:00,44.4,29.3,30.26,NNW,330,4.0,6.0,55,0.00,,,0.00,LWC V2.10 B1702,2013-04-21 06:15:00,
2013-04-21 02:20:00,44.2,28.2,30.26,WNW,299,4.0,10.0,53,0.00,,,0.00,LWC V2.10 B1702,2013-04-21 06:20:00,
2013-04-21 02:25:00,44.2,28.6,30.27,NNE,19,6.0,6.0,54,0.00,,,0.00,LWC V2.10 B1702,2013-04-21 06:25:00,
2013-04-21 02:30:00,44.0,28.9,30.27,NE,54,6.0,6.0,55,0.00,,,0.00,LWC V2.10 B1702,2013-04-21 06:30:00,
2013-04-21 02:35:00,43.8,28.2,30.27,NNW,343,4.0,9.0,54,0.00,,,0.00,LWC V2.10 B1702,2013-04-21 06:35:00,
2013-04-21 02:40:00,43.7,29.0,30.28,NNW,344,4.0,7.0,56,0.00,,,0.00,LWC V2.10 B1702,2013-04-21 06:40:00,
2013-04-21 02:45:00,43.5,28.9,30.28,North,5,6.0,8.0,56,0.00,,,0.00,LWC V2.10 B1702,2013-04-21 06:45:00,
2013-04-21 02:50:00,43.3,28.7,30.28,North,355,5.0,8.0,56,0.00,,,0.00,LWC V2.10 B1702,2013-04-21 06:50:00,
2013-04-21 02:55:00,43.1,28.9,30.29,NNW,348,3.0,7.0,57,0.00,,,0.00,LWC V2.10 B1702,2013-04-21 06:55:00,
2013-04-21 03:00:00,42.9,27.0,30.29,NNW,329,5.0,9.0,53,0.00,,,0.00,LWC V2.10 B1702,2013-04-21 07:00:00,
2013-04-21 03:05:00,42.6,27.1,30.30,NNE,19,4.0,10.0,54,0.00,,,0.00,LWC V2.10 B1702,2013-04-21 07:05:00,
2013-04-21 03:10:00,42.4,27.4,30.30,NE,44,10.0,10.0,55,0.00,,,0.00,LWC V2.10 B1702,2013-04-21 07:10:00,
2013-04-21 03:15:00,42.2,27.2,30.30,West,268,6.0,9.0,55,0.00,,,0.00,LWC V2.10 B1702,2013-04-21 07:15:00,
2013-04-21 03:20:00,42.1,27.5,30.30,NNW,338,3.0,3.0,56,0.00,,,0.00,LWC V2.10 B1702,2013-04-21 07:20:00,
2013-04-21 03:25:00,41.9,26.5,30.30,NNW,328,6.0,10.0,54,0.00,,,0.00,LWC V2.10 B1702,2013-04-21 07:25:00,
2013-04-21 03:30:00,41.7,26.7,30.31,NNW,346,3.0,7.0,55,0.00,,,0.00,LWC V2.10 B1702,2013-04-21 07:30:00,
2013-04-21 03:35:00,41.5,26.6,30.31,NNW,333,3.0,8.0,55,0.00,,,0.00,LWC V2.10 B1702,2013-04-21 07:35:00,
2013-04-21 03:40:00,41.4,26.9,30.32,North,355,9.0,10.0,56,0.00,,,0.00,LWC V2.10 B1702,2013-04-21 07:40:00,
2013-04-21 03:45:00,41.3,27.7,30.31,West,275,3.0,4.0,58,0.00,,,0.00,LWC V2.10 B1702,2013-04-21 07:45:00,
2013-04-21 03:50:00,41.1,27.0,30.32,NW,320,5.0,5.0,57,0.00,,,0.00,LWC V2.10 B1702,2013-04-21 07:50:00,
2013-04-21 03:55:00,40.9,26.9,30.32,NNW,338,6.0,6.0,57,0.00,,,0.00,LWC V2.10 B1702,2013-04-21 07:55:00,
2013-04-21 04:00:00,40.7,26.2,30.32,NNW,339,4.0,4.0,56,0.00,,,0.00,LWC V2.10 B1702,2013-04-21 08:00:00,
2013-04-21 04:05:00,40.6,26.1,30.32,NNW,338,1.0,5.0,56,0.00,,,0.00,LWC V2.10 B1702,2013-04-21 08:05:00,
2013-04-21 04:10:00,40.5,26.1,30.32,NNW,334,5.0,7.0,56,0.00,,,0.00,LWC V2.10 B1702,2013-04-21 08:10:00,
2013-04-21 04:15:00,40.3,26.3,30.32,NW,309,4.0,8.0,57,0.00,,,0.00,LWC V2.10 B1702,2013-04-21 08:15:00,
2013-04-21 04:20:00,40.2,26.2,30.32,NNE,22,3.0,8.0,57,0.00,,,0.00,LWC V2.10 B1702,2013-04-21 08:20:00,
2013-04-21 04:25:00,40.1,26.5,30.33,NE,35,2.0,9.0,58,0.00,,,0.00,LWC V2.10 B1702,2013-04-21 08:25:00,
2013-04-21 04:30:00,40.0,26.4,30.33,NNE,13,2.0,7.0,58,0.00,,,0.00,LWC V2.10 B1702,2013-04-21 08:30:00,
2013-04-21 04:35:00,39.8,26.7,30.34,North,0,0.0,8.0,59,0.00,,,0.00,LWC V2.10 B1702,2013-04-21 08:35:00,
2013-04-21 04:40:00,39.7,26.6,30.35,NNW,344,2.0,5.0,59,0.00,,,0.00,LWC V2.10 B1702,2013-04-21 08:40:00,
2013-04-21 04:45:00,39.6,26.5,30.35,North,350,6.0,6.0,59,0.00,,,0.00,LWC V2.10 B1702,2013-04-21 08:45:00,
2013-04-21 04:50:00,39.5,26.0,30.35,North,355,0.0,7.0,58,0.00,,,0.00,LWC V2.10 B1702,2013-04-21 08:50:00,
2013-04-21 04:55:00,39.4,25.9,30.36,North,5,5.0,5.0,58,0.00,,,0.00,LWC V2.10 B1702,2013-04-21 08:55:00,
2013-04-21 05:00:00,39.3,26.6,30.36,NNW,336,6.0,7.0,60,0.00,,,0.00,LWC V2.10 B1702,2013-04-21 09:00:00,
2013-04-21 05:05:00,39.2,25.7,30.36,North,5,1.0,4.0,58,0.00,,,0.00,LWC V2.10 B1702,2013-04-21 09:05:00,
2013-04-21 05:10:00,39.0,26.7,30.36,NNW,343,3.0,5.0,61,0.00,,,0.00,LWC V2.10 B1702,2013-04-21 09:10:00,
2013-04-21 05:15:00,38.8,25.7,30.37,North,0,3.0,4.0,59,0.00,,,0.00,LWC V2.10 B1702,2013-04-21 09:15:00,
2013-04-21 05:20:00,38.8,26.1,30.37,NE,50,0.0,2.0,60,0.00,,,0.00,LWC V2.10 B1702,2013-04-21 09:20:00,
2013-04-21 05:25:00,38.7,26.0,30.37,NW,309,0.0,4.0,60,0.00,,,0.00,LWC V2.10 B1702,2013-04-21 09:25:00,
2013-04-21 05:30:00,38.6,25.9,30.38,NW,319,2.0,6.0,60,0.00,,,0.00,LWC V2.10 B1702,2013-04-21 09:30:00,
2013-04-21 05:35:00,38.5,25.4,30.38,NNW,327,4.0,6.0,59,0.00,,,0.00,LWC V2.10 B1702,2013-04-21 09:35:00,
2013-04-21 05:40:00,38.4,25.7,30.38,NNW,341,6.0,7.0,60,0.00,,,0.00,LWC V2.10 B1702,2013-04-21 09:40:00,
2013-04-21 05:45:00,38.4,25.3,30.38,NNW,341,9.0,10.0,59,0.00,,,0.00,LWC V2.10 B1702,2013-04-21 09:45:00,
2013-04-21 05:50:00,38.4,24.9,30.39,NNW,333,6.0,6.0,58,0.00,,,0.00,LWC V2.10 B1702,2013-04-21 09:50:00,
2013-04-21 05:55:00,38.4,25.3,30.39,NNW,342,3.0,6.0,59,0.00,,,0.00,LWC V2.10 B1702,2013-04-21 09:55:00,
2013-04-21 06:00:00,38.3,25.2,30.39,NNW,327,1.0,4.0,59,0.00,,,0.00,LWC V2.10 B1702,2013-04-21 10:00:00,
2013-04-21 06:05:00,38.2,25.2,30.40,NNE,19,0.0,4.0,59,0.00,,,0.00,LWC V2.10 B1702,2013-04-21 10:05:00,
2013-04-21 06:10:00,38.1,25.5,30.40,NE,51,1.0,2.0,60,0.00,,,0.00,LWC V2.10 B1702,2013-04-21 10:10:00,
2013-04-21 06:15:00,38.1,25.5,30.40,NNE,19,4.0,7.0,60,0.00,,,0.00,LWC V2.10 B1702,2013-04-21 10:15:00,
2013-04-21 06:20:00,38.0,25.4,30.40,NNE,19,3.0,6.0,60,0.00,,,0.00,LWC V2.10 B1702,2013-04-21 10:20:00,
2013-04-21 06:25:00,38.0,25.0,30.41,NE,38,3.0,7.0,59,0.00,,,0.00,LWC V2.10 B1702,2013-04-21 10:25:00,
2013-04-21 06:30:00,38.0,25.0,30.41,NNE,30,5.0,5.0,59,0.00,,,0.00,LWC V2.10 B1702,2013-04-21 10:30:00,
2013-04-21 06:35:00,38.1,25.5,30.42,NNW,329,3.0,4.0,60,0.00,,,0.00,LWC V2.10 B1702,2013-04-21 10:35:00,
2013-04-21 06:40:00,38.2,26.0,30.42,North,5,1.0,7.0,61,0.00,,,0.00,LWC V2.10 B1702,2013-04-21 10:40:00,
2013-04-21 06:45:00,38.3,25.6,30.43,North,355,4.0,8.0,60,0.00,,,0.00,LWC V2.10 B1702,2013-04-21 10:45:00,
2013-04-21 06:50:00,38.4,24.9,30.43,WNW,302,4.0,9.0,58,0.00,,,0.00,LWC V2.10 B1702,2013-04-21 10:50:00,
2013-04-21 06:55:00,38.5,25.4,30.43,NW,322,5.0,6.0,59,0.00,,,0.00,LWC V2.10 B1702,2013-04-21 10:55:00,
2013-04-21 07:00:00,38.6,25.5,30.44,North,355,1.0,4.0,59,0.00,,,0.00,LWC V2.10 B1702,2013-04-21 11:00:00,
2013-04-21 07:05:00,38.8,26.1,30.44,NNW,331,5.0,5.0,60,0.00,,,0.00,LWC V2.10 B1702,2013-04-21 11:05:00,
2013-04-21 07:10:00,38.9,25.0,30.44,NNW,344,8.0,12.0,57,0.00,,,0.00,LWC V2.10 B1702,2013-04-21 11:10:00,
2013-04-21 07:15:00,39.0,25.9,30.44,NNW,345,4.0,4.0,59,0.00,,,0.00,LWC V2.10 B1702,2013-04-21 11:15:00,
2013-04-21 07:20:00,39.1,26.0,30.45,NNW,347,3.0,6.0,59,0.00,,,0.00,LWC V2.10 B1702,2013-04-21 11:20:00,
2013-04-21 07:25:00,39.3,26.6,30.45,North,349,1.0,4.0,60,0.00,,,0.00,LWC V2.10 B1702,2013-04-21 11:25:00,
2013-04-21 07:30:00,39.5,26.8,30.45,North,5,2.0,4.0,60,0.00,,,0.00,LWC V2.10 B1702,2013-04-21 11:30:00,
2013-04-21 07:35:00,39.7,26.6,30.45,NNW,346,1.0,5.0,59,0.00,,,0.00,LWC V2.10 B1702,2013-04-21 11:35:00,
2013-04-21 07:40:00,39.9,26.3,30.45,NNE,29,11.0,11.0,58,0.00,,,0.00,LWC V2.10 B1702,2013-04-21 11:40:00,
2013-04-21 07:45:00,40.1,26.5,30.46,North,0,1.0,6.0,58,0.00,,,0.00,LWC V2.10 B1702,2013-04-21 11:45:00,
2013-04-21 07:50:00,40.2,26.2,30.46,NNW,335,4.0,7.0,57,0.00,,,0.00,LWC V2.10 B1702,2013-04-21 11:50:00,
2013-04-21 07:55:00,40.4,26.8,30.46,NW,315,3.0,5.0,58,0.00,,,0.00,LWC V2.10 B1702,2013-04-21 11:55:00,
2013-04-21 08:00:00,40.8,26.8,30.47,North,5,1.0,4.0,57,0.00,,,0.00,LWC V2.10 B1702,2013-04-21 12:00:00,
2013-04-21 08:05:00,41.1,27.0,30.46,NW,315,5.0,7.0,57,0.00,,,0.00,LWC V2.10 B1702,2013-04-21 12:05:00,
2013-04-21 08:10:00,41.3,26.4,30.46,North,0,1.0,3.0,55,0.00,,,0.00,LWC V2.10 B1702,2013-04-21 12:10:00,
2013-04-21 08:15:00,41.5,27.0,30.47,NE,50,1.0,2.0,56,0.00,,,0.00,LWC V2.10 B1702,2013-04-21 12:15:00,
2013-04-21 08:20:00,41.9,27.4,30.47,NE,37,7.0,7.0,56,0.00,,,0.00,LWC V2.10 B1702,2013-04-21 12:20:00,
2013-04-21 08:25:00,42.1,25.8,30.47,NE,38,2.0,9.0,52,0.00,,,0.00,LWC V2.10 B1702,2013-04-21 12:25:00,
2013-04-21 08:30:00,42.1,26.7,30.47,NNW,333,6.0,7.0,54,0.00,,,0.00,LWC V2.10 B1702,2013-04-21 12:30:00,
2013-04-21 08:35:00,42.3,26.9,30.47,NNE,21,5.0,5.0,54,0.00,,,0.00,LWC V2.10 B1702,2013-04-21 12:35:00,
2013-04-21 08:40:00,42.5,27.5,30.47,NW,307,1.0,3.0,55,0.00,,,0.00,LWC V2.10 B1702,2013-04-21 12:40:00,
2013-04-21 08:45:00,42.6,26.7,30.47,NE,35,3.0,8.0,53,0.00,,,0.00,LWC V2.10 B1702,2013-04-21 12:45:00,
2013-04-21 08:50:00,42.8,26.4,30.48,ESE,109,0.0,4.0,52,0.00,,,0.00,LWC V2.10 B1702,2013-04-21 12:50:00,
2013-04-21 08:55:00,43.1,26.2,30.48,NNW,346,2.0,9.0,51,0.00,,,0.00,LWC V2.10 B1702,2013-04-21 12:55:00,
2013-04-21 09:00:00,43.2,26.8,30.48,NE,44,6.0,6.0,52,0.00,,,0.00,LWC V2.10 B1702,2013-04-21 13:00:00,
2013-04-21 09:05:00,43.3,27.3,30.48,NE,55,2.0,9.0,53,0.00,,,0.00,LWC V2.10 B1702,2013-04-21 13:05:00,
2013-04-21 09:10:00,43.6,28.1,30.48,ENE,67,2.0,4.0,54,0.00,,,0.00,LWC V2.10 B1702,2013-04-21 13:10:00,
2013-04-21 09:15:00,44.0,27.5,30.48,WNW,288,1.0,9.0,52,0.00,,,0.00,LWC V2.10 B1702,2013-04-21 13:15:00,
2013-04-21 09:20:00,44.3,27.3,30.48,North,11,3.0,11.0,51,0.00,,,0.00,LWC V2.10 B1702,2013-04-21 13:20:00,
2013-04-21 09:25:00,44.7,27.7,30.48,North,5,4.0,7.0,51,0.00,,,0.00,LWC V2.10 B1702,2013-04-21 13:25:00,
2013-04-21 09:30:00,45.0,28.4,30.49,NNW,337,4.0,8.0,52,0.00,,,0.00,LWC V2.10 B1702,2013-04-21 13:30:00,
2013-04-21 09:35:00,45.4,28.3,30.49,NNE,13,2.0,5.0,51,0.00,,,0.00,LWC V2.10 B1702,2013-04-21 13:35:00,
2013-04-21 09:40:00,45.8,28.2,30.49,NNE,31,7.0,7.0,50,0.00,,,0.00,LWC V2.10 B1702,2013-04-21 13:40:00,
2013-04-21 09:45:00,46.5,30.3,30.49,NNW,340,3.0,4.0,53,0.00,,,0.00,LWC V2.10 B1702,2013-04-21 13:45:00,
2013-04-21 09:50:00,47.3,29.6,30.49,North,0,0.0,5.0,50,0.00,,,0.00,LWC V2.10 B1702,2013-04-21 13:50:00,
2013-04-21 09:55:00,47.5,28.8,30.50,North,355,7.0,8.0,48,0.00,,,0.00,LWC V2.10 B1702,2013-04-21 13:55:00,
2013-04-21 10:00:00,47.4,28.2,30.49,NNW,328,1.0,5.0,47,0.00,,,0.00,LWC V2.10 B1702,2013-04-21 14:00:00,
2013-04-21 10:05:00,47.8,28.6,30.50,NNE,30,6.0,7.0,47,0.00,,,0.00,LWC V2.10 B1702,2013-04-21 14:05:00,
2013-04-21 10:10:00,48.3,28.5,30.50,NE,54,3.0,7.0,46,0.00,,,0.00,LWC V2.10 B1702,2013-04-21 14:10:00,
2013-04-21 10:15:00,49.1,29.7,30.50,NNE,18,9.0,9.0,47,0.00,,,0.00,LWC V2.10 B1702,2013-04-21 14:15:00,
2013-04-21 10:20:00,49.8,28.8,30.50,East,84,5.0,5.0,44,0.00,,,0.00,LWC V2.10 B1702,2013-04-21 14:20:00,
2013-04-21 10:25:00,49.8,27.1,30.51,South,180,3.0,8.0,41,0.00,,,0.00,LWC V2.10 B1702,2013-04-21 14:25:00,
2013-04-21 10:30:00,49.0,28.0,30.51,ESE,111,2.0,10.0,44,0.00,,,0.00,LWC V2.10 B1702,2013-04-21 14:30:00,
2013-04-21 10:35:00,49.2,28.2,30.51,NNW,340,8.0,8.0,44,0.00,,,0.00,LWC V2.10 B1702,2013-04-21 14:35:00,
2013-04-21 10:40:00,49.0,28.6,30.51,NNE,24,1.0,7.0,45,0.00,,,0.00,LWC V2.10 B1702,2013-04-21 14:40:00,
2013-04-21 10:45:00,48.8,28.4,30.51,NE,36,3.0,8.0,45,0.00,,,0.00,LWC V2.10 B1702,2013-04-21 14:45:00,
2013-04-21 10:50:00,49.2,30.4,30.51,NE,52,1.0,3.0,48,0.00,,,0.00,LWC V2.10 B1702,2013-04-21 14:50:00,
2013-04-21 10:55:00,49.8,29.3,30.51,NNE,19,2.0,12.0,45,0.00,,,0.00,LWC V2.10 B1702,2013-04-21 14:55:00,
2013-04-21 11:00:00,50.5,28.8,30.52,North,0,4.0,11.0,43,0.00,,,0.00,LWC V2.10 B1702,2013-04-21 15:00:00,
2013-04-21 11:05:00,50.6,30.6,30.52,NNE,32,1.0,8.0,46,0.00,,,0.00,LWC V2.10 B1702,2013-04-21 15:05:00,
2013-04-21 11:10:00,50.5,28.8,30.52,West,281,0.0,2.0,43,0.00,,,0.00,LWC V2.10 B1702,2013-04-21 15:10:00,
2013-04-21 11:15:00,49.8,28.8,30.52,NNW,332,6.0,6.0,44,0.00,,,0.00,LWC V2.10 B1702,2013-04-21 15:15:00,
2013-04-21 11:20:00,50.3,29.2,30.52,North,9,1.0,6.0,44,0.00,,,0.00,LWC V2.10 B1702,2013-04-21 15:20:00,
2013-04-21 11:25:00,50.7,29.6,30.52,NNW,333,6.0,6.0,44,0.00,,,0.00,LWC V2.10 B1702,2013-04-21 15:25:00,
2013-04-21 11:30:00,50.3,28.7,30.52,NNW,338,3.0,5.0,43,0.00,,,0.00,LWC V2.10 B1702,2013-04-21 15:30:00,
2013-04-21 11:35:00,50.4,29.9,30.52,ENE,74,0.0,4.0,45,0.00,,,0.00,LWC V2.10 B1702,2013-04-21 15:35:00,
2013-04-21 11:40:00,51.1,30.0,30.52,ENE,65,0.0,3.0,44,0.00,,,0.00,LWC V2.10 B1702,2013-04-21 15:40:00,
2013-04-21 11:45:00,51.6,29.3,30.52,ENE,57,5.0,5.0,42,0.00,,,0.00,LWC V2.10 B1702,2013-04-21 15:45:00,
2013-04-21 11:50:00,51.6,29.8,30.52,NNE,23,6.0,7.0,43,0.00,,,0.00,LWC V2.10 B1702,2013-04-21 15:50:00,
2013-04-21 11:55:00,52.3,32.1,30.52,ENE,63,4.0,7.0,46,0.00,,,0.00,LWC V2.10 B1702,2013-04-21 15:55:00,
2013-04-21 12:00:00,52.3,29.3,30.52,NE,53,0.0,5.0,41,0.00,,,0.00,LWC V2.10 B1702,2013-04-21 16:00:00,
2013-04-21 12:05:00,52.4,31.7,30.53,East,82,1.0,4.0,45,0.00,,,0.00,LWC V2.10 B1702,2013-04-21 16:05:00,
2013-04-21 12:10:00,53.0,31.7,30.53,North,5,4.0,7.0,44,0.00,,,0.00,LWC V2.10 B1702,2013-04-21 16:10:00,
2013-04-21 12:15:00,52.8,30.9,30.53,ENE,62,3.0,7.0,43,0.00,,,0.00,LWC V2.10 B1702,2013-04-21 16:15:00,
2013-04-21 12:20:00,52.4,28.8,30.53,NE,56,2.0,7.0,40,0.00,,,0.00,LWC V2.10 B1702,2013-04-21 16:20:00,
2013-04-21 12:25:00,52.2,31.5,30.53,NE,40,6.0,9.0,45,0.00,,,0.00,LWC V2.10 B1702,2013-04-21 16:25:00,
2013-04-21 12:30:00,51.9,32.3,30.53,North,0,0.0,4.0,47,0.00,,,0.00,LWC V2.10 B1702,2013-04-21 16:30:00,
2013-04-21 12:35:00,51.8,30.0,30.53,NNE,20,2.0,2.0,43,0.00,,,0.00,LWC V2.10 B1702,2013-04-21 16:35:00,
2013-04-21 12:40:00,51.9,31.2,30.53,NNE,29,3.0,8.0,45,0.00,,,0.00,LWC V2.10 B1702,2013-04-21 16:40:00,
2013-04-21 12:45:00,52.5,29.5,30.53,NNW,329,1.0,6.0,41,0.00,,,0.00,LWC V2.10 B1702,2013-04-21 16:45:00,
2013-04-21 12:50:00,52.2,29.8,30.53,NE,34,3.0,5.0,42,0.00,,,0.00,LWC V2.10 B1702,2013-04-21 16:50:00,
2013-04-21 12:55:00,52.6,30.7,30.53,NNE,17,0.0,5.0,43,0.00,,,0.00,LWC V2.10 B1702,2013-04-21 16:55:00,
2013-04-21 13:00:00,53.2,30.7,30.53,NE,40,1.0,4.0,42,0.00,,,0.00,LWC V2.10 B1702,2013-04-21 17:00:00,
2013-04-21 13:05:00,53.7,31.2,30.53,NW,325,2.0,5.0,42,0.00,,,0.00,LWC V2.10 B1702,2013-04-21 17:05:00,
2013-04-21 13:10:00,54.2,31.6,30.53,North,0,4.0,10.0,42,0.00,,,0.00,LWC V2.10 B1702,2013-04-21 17:10:00,
2013-04-21 13:15:00,53.3,29.0,30.53,NE,52,4.0,7.0,39,0.00,,,0.00,LWC V2.10 B1702,2013-04-21 17:15:00,
2013-04-21 13:20:00,52.8,30.9,30.53,ESE,121,0.0,4.0,43,0.00,,,0.00,LWC V2.10 B1702,2013-04-21 17:20:00,
2013-04-21 13:25:00,53.5,29.8,30.53,NE,45,4.0,6.0,40,0.00,,,0.00,LWC V2.10 B1702,2013-04-21 17:25:00,
2013-04-21 13:30:00,53.9,30.1,30.53,East,79,7.0,8.0,40,0.00,,,0.00,LWC V2.10 B1702,2013-04-21 17:30:00,
2013-04-21 13:35:00,54.2,32.8,30.53,ENE,62,3.0,6.0,44,0.00,,,0.00,LWC V2.10 B1702,2013-04-21 17:35:00,
2013-04-21 13:40:00,54.9,32.8,30.53,WSW,256,0.0,2.0,43,0.00,,,0.00,LWC V2.10 B1702,2013-04-21 17:40:00,
2013-04-21 13:45:00,55.0,31.7,30.53,ENE,62,0.0,4.0,41,0.00,,,0.00,LWC V2.10 B1702,2013-04-21 17:45:00,
2013-04-21 13:50:00,54.8,30.3,30.54,NNE,28,1.0,5.0,39,0.00,,,0.00,LWC V2.10 B1702,2013-04-21 17:50:00,
2013-04-21 13:55:00,54.4,30.6,30.54,NE,47,5.0,5.0,40,0.00,,,0.00,LWC V2.10 B1702,2013-04-21 17:55:00,
2013-04-21 14:00:00,54.4,31.2,30.53,WSW,256,4.0,4.0,41,0.00,,,0.00,LWC V2.10 B1702,2013-04-21 18:00:00,
2013-04-21 14:05:00,54.4,31.8,30.53,East,80,0.0,6.0,42,0.00,,,0.00,LWC V2.10 B1702,2013-04-21 18:05:00,
2013-04-21 14:10:00,54.4,31.8,30.54,NE,46,2.0,5.0,42,0.00,,,0.00,LWC V2.10 B1702,2013-04-21 18:10:00,
2013-04-21 14:15:00,54.6,30.1,30.54,ENE,75,2.0,9.0,39,0.00,,,0.00,LWC V2.10 B1702,2013-04-21 18:15:00,
2013-04-21 14:20:00,54.9,30.4,30.53,ENE,57,1.0,7.0,39,0.00,,,0.00,LWC V2.10 B1702,2013-04-21 18:20:00,
2013-04-21 14:25:00,55.1,31.2,30.54,West,269,0.0,1.0,40,0.00,,,0.00,LWC V2.10 B1702,2013-04-21 18:25:00,
2013-04-21 14:30:00,55.4,32.1,30.54,NNE,28,4.0,5.0,41,0.00,,,0.00,LWC V2.10 B1702,2013-04-21 18:30:00,
2013-04-21 14:35:00,55.4,31.5,30.54,SE,130,2.0,4.0,40,0.00,,,0.00,LWC V2.10 B1702,2013-04-21 18:35:00,
2013-04-21 14:40:00,55.0,31.1,30.54,SE,137,2.0,6.0,40,0.00,,,0.00,LWC V2.10 B1702,2013-04-21 18:40:00,
2013-04-21 14:45:00,55.6,31.7,30.53,North,5,1.0,5.0,40,0.00,,,0.00,LWC V2.10 B1702,2013-04-21 18:45:00,
2013-04-21 14:50:00,55.1,31.8,30.53,East,83,5.0,7.0,41,0.00,,,0.00,LWC V2.10 B1702,2013-04-21 18:50:00,
2013-04-21 14:55:00,55.5,30.3,30.53,SE,134,2.0,3.0,38,0.00,,,0.00,LWC V2.10 B1702,2013-04-21 18:55:00,
2013-04-21 15:00:00,55.3,31.4,30.54,ENE,77,2.0,7.0,40,0.00,,,0.00,LWC V2.10 B1702,2013-04-21 19:00:00,
2013-04-21 15:05:00,55.7,31.1,30.53,NE,53,0.0,7.0,39,0.00,,,0.00,LWC V2.10 B1702,2013-04-21 19:05:00,
2013-04-21 15:10:00,55.8,31.2,30.53,East,94,3.0,5.0,39,0.00,,,0.00,LWC V2.10 B1702,2013-04-21 19:10:00,
2013-04-21 15:15:00,55.8,31.8,30.53,SE,138,2.0,6.0,40,0.00,,,0.00,LWC V2.10 B1702,2013-04-21 19:15:00,
2013-04-21 15:20:00,56.3,31.0,30.54,NE,38,2.0,4.0,38,0.00,,,0.00,LWC V2.10 B1702,2013-04-21 19:20:00,
2013-04-21 15:25:00,55.9,30.7,30.53,NE,55,1.0,6.0,38,0.00,,,0.00,LWC V2.10 B1702,2013-04-21 19:25:00,
2013-04-21 15:26:00,55.9,30.7,30.53,East,91,0.0,6.0,38,0.00,,,0.00,LWC V2.10 B1702,2013-04-21 19:26:00,
2013-04-21 15:31:00,55.5,30.3,30.54,ENE,69,2.0,5.0,38,0.00,,,0.00,LWC V2.10 B1702,2013-04-21 19:31:00,
2013-04-21 15:36:00,55.5,30.3,30.54,East,86,6.0,8.0,38,0.00,,,0.00,LWC V2.10 B1702,2013-04-21 19:36:00,
2013-04-21 15:41:00,55.4,31.5,30.53,East,101,5.0,8.0,40,0.00,,,0.00,LWC V2.10 B1702,2013-04-21 19:41:00,
2013-04-21 15:46:00,55.3,30.8,30.54,East,89,2.0,7.0,39,0.00,,,0.00,LWC V2.10 B1702,2013-04-21 19:46:00,
2013-04-21 15:51:00,55.0,29.9,30.53,NNE,21,3.0,5.0,38,0.00,,,0.00,LWC V2.10 B1702,2013-04-21 19:51:00,
2013-04-21 15:56:00,54.9,30.4,30.54,East,80,6.0,6.0,39,0.00,,,0.00,LWC V2.10 B1702,2013-04-21 19:56:00,
2013-04-21 16:01:00,54.9,30.4,30.54,East,80,2.0,6.0,39,0.00,,,0.00,LWC V2.10 B1702,2013-04-21 20:01:00,
2013-04-21 16:06:00,54.6,30.8,30.54,East,86,6.0,6.0,40,0.00,,,0.00,LWC V2.10 B1702,2013-04-21 20:06:00,
2013-04-21 16:11:00,54.4,30.6,30.54,ESE,106,3.0,5.0,40,0.00,,,0.00,LWC V2.10 B1702,2013-04-21 20:11:00,
2013-04-21 16:16:00,54.3,29.9,30.54,ESE,105,3.0,7.0,39,0.00,,,0.00,LWC V2.10 B1702,2013-04-21 20:16:00,
2013-04-21 16:21:00,53.9,30.1,30.54,East,84,1.0,3.0,40,0.00,,,0.00,LWC V2.10 B1702,2013-04-21 20:21:00,
2013-04-21 16:26:00,53.7,28.7,30.55,East,86,3.0,7.0,38,0.00,,,0.00,LWC V2.10 B1702,2013-04-21 20:26:00,
2013-04-21 16:31:00,53.2,28.9,30.55,ENE,73,5.0,8.0,39,0.00,,,0.00,LWC V2.10 B1702,2013-04-21 20:31:00,
2013-04-21 16:36:00,52.5,29.5,30.55,SSE,157,6.0,6.0,41,0.00,,,0.00,LWC V2.10 B1702,2013-04-21 20:36:00,
2013-04-21 16:41:00,52.4,30.0,30.55,SE,138,4.0,4.0,42,0.00,,,0.00,LWC V2.10 B1702,2013-04-21 20:41:00,
2013-04-21 16:46:00,52.5,30.7,30.55,SSE,148,4.0,5.0,43,0.00,,,0.00,LWC V2.10 B1702,2013-04-21 20:46:00,
2013-04-21 16:51:00,52.2,29.2,30.55,North,5,5.0,7.0,41,0.00,,,0.00,LWC V2.10 B1702,2013-04-21 20:51:00,
2013-04-21 16:56:00,51.8,29.4,30.55,East,100,2.0,7.0,42,0.00,,,0.00,LWC V2.10 B1702,2013-04-21 20:56:00,
2013-04-21 17:01:00,51.5,28.6,30.55,ENE,71,4.0,4.0,41,0.00,,,0.00,LWC V2.10 B1702,2013-04-21 21:01:00,
2013-04-21 17:06:00,51.1,28.2,30.55,ESE,123,2.0,7.0,41,0.00,,,0.00,LWC V2.10 B1702,2013-04-21 21:06:00,
2013-04-21 17:11:00,50.8,28.5,30.55,NE,51,3.0,5.0,42,0.00,,,0.00,LWC V2.10 B1702,2013-04-21 21:11:00,
2013-04-21 17:16:00,50.4,28.2,30.55,NE,53,2.0,6.0,42,0.00,,,0.00,LWC V2.10 B1702,2013-04-21 21:16:00,
2013-04-21 17:21:00,50.5,28.8,30.55,South,181,4.0,4.0,43,0.00,,,0.00,LWC V2.10 B1702,2013-04-21 21:21:00,
2013-04-21 17:26:00,50.7,29.0,30.55,SSE,155,4.0,7.0,43,0.00,,,0.00,LWC V2.10 B1702,2013-04-21 21:26:00,
2013-04-21 17:31:00,50.7,28.5,30.56,ESE,109,2.0,5.0,42,0.00,,,0.00,LWC V2.10 B1702,2013-04-21 21:31:00,
2013-04-21 17:36:00,50.8,29.1,30.56,East,86,3.0,8.0,43,0.00,,,0.00,LWC V2.10 B1702,2013-04-21 21:36:00,
2013-04-21 17:41:00,50.8,28.0,30.56,East,93,1.0,7.0,41,0.00,,,0.00,LWC V2.10 B1702,2013-04-21 21:41:00,
2013-04-21 17:46:00,50.6,28.9,30.57,ENE,67,1.0,3.0,43,0.00,,,0.00,LWC V2.10 B1702,2013-04-21 21:46:00,
2013-04-21 17:51:00,50.6,29.5,30.57,ENE,67,4.0,4.0,44,0.00,,,0.00,LWC V2.10 B1702,2013-04-21 21:51:00,
2013-04-21 17:56:00,50.5,28.3,30.57,East,82,1.0,3.0,42,0.00,,,0.00,LWC V2.10 B1702,2013-04-21 21:56:00,
2013-04-21 18:01:00,50.3,28.1,30.57,ESE,121,3.0,3.0,42,0.00,,,0.00,LWC V2.10 B1702,2013-04-21 22:01:00,
2013-04-21 18:06:00,50.2,29.1,30.57,ENE,78,1.0,2.0,44,0.00,,,0.00,LWC V2.10 B1702,2013-04-21 22:06:00,
2013-04-21 18:11:00,50.2,28.6,30.57,ENE,60,2.0,5.0,43,0.00,,,0.00,LWC V2.10 B1702,2013-04-21 22:11:00,
2013-04-21 18:16:00,49.9,28.9,30.58,ESE,108,0.0,3.0,44,0.00,,,0.00,LWC V2.10 B1702,2013-04-21 22:16:00,
2013-04-21 18:21:00,49.4,28.4,30.58,East,84,2.0,3.0,44,0.00,,,0.00,LWC V2.10 B1702,2013-04-21 22:21:00,
2013-04-21 18:26:00,48.9,27.4,30.58,SE,126,1.0,3.0,43,0.00,,,0.00,LWC V2.10 B1702,2013-04-21 22:26:00,
2013-04-21 18:31:00,48.5,28.1,30.58,SE,128,1.0,2.0,45,0.00,,,0.00,LWC V2.10 B1702,2013-04-21 22:31:00,
2013-04-21 18:36:00,48.2,27.9,30.58,SE,130,3.0,3.0,45,0.00,,,0.00,LWC V2.10 B1702,2013-04-21 22:36:00,
2013-04-21 18:41:00,47.9,28.1,30.59,East,82,0.0,0.0,46,0.00,,,0.00,LWC V2.10 B1702,2013-04-21 22:41:00,
2013-04-21 18:46:00,47.6,27.9,30.59,ESE,110,2.0,3.0,46,0.00,,,0.00,LWC V2.10 B1702,2013-04-21 22:46:00,
2013-04-21 18:51:00,47.4,27.7,30.59,East,81,0.0,3.0,46,0.00,,,0.00,LWC V2.10 B1702,2013-04-21 22:51:00,
2013-04-21 18:56:00,47.0,26.8,30.59,ESE,103,1.0,5.0,45,0.00,,,0.00,LWC V2.10 B1702,2013-04-21 22:56:00,
2013-04-21 19:01:00,46.6,26.9,30.59,East,86,0.0,0.0,46,0.00,,,0.00,LWC V2.10 B1702,2013-04-21 23:01:00,
2013-04-21 19:06:00,46.4,27.3,30.60,East,86,0.0,0.0,47,0.00,,,0.00,LWC V2.10 B1702,2013-04-21 23:06:00,
2013-04-21 19:11:00,46.1,27.0,30.60,East,86,0.0,0.0,47,0.00,,,0.00,LWC V2.10 B1702,2013-04-21 23:11:00,
2013-04-21 19:16:00,45.9,28.3,30.60,East,86,0.0,0.0,50,0.00,,,0.00,LWC V2.10 B1702,2013-04-21 23:16:00,
2013-04-21 19:21:00,45.5,28.0,30.60,East,86,0.0,0.0,50,0.00,,,0.00,LWC V2.10 B1702,2013-04-21 23:21:00,
2013-04-21 19:26:00,45.2,28.2,30.60,East,86,0.0,0.0,51,0.00,,,0.00,LWC V2.10 B1702,2013-04-21 23:26:00,
2013-04-21 19:31:00,44.9,27.9,30.60,East,86,0.0,0.0,51,0.00,,,0.00,LWC V2.10 B1702,2013-04-21 23:31:00,
2013-04-21 19:36:00,44.6,27.6,30.61,East,86,0.0,0.0,51,0.00,,,0.00,LWC V2.10 B1702,2013-04-21 23:36:00,
2013-04-21 19:41:00,44.3,27.8,30.61,East,86,0.0,0.0,52,0.00,,,0.00,LWC V2.10 B1702,2013-04-21 23:41:00,
2013-04-21 19:46:00,44.1,28.1,30.61,East,86,0.0,0.0,53,0.00,,,0.00,LWC V2.10 B1702,2013-04-21 23:46:00,
2013-04-21 19:51:00,43.7,28.6,30.61,East,86,0.0,0.0,55,0.00,,,0.00,LWC V2.10 B1702,2013-04-21 23:51:00,
2013-04-21 19:56:00,43.4,29.2,30.62,East,86,0.0,0.0,57,0.00,,,0.00,LWC V2.10 B1702,2013-04-21 23:56:00,
2013-04-21 20:01:00,43.1,29.3,30.62,East,86,0.0,0.0,58,0.00,,,0.00,LWC V2.10 B1702,2013-04-22 00:01:00,
2013-04-21 20:06:00,42.7,29.0,30.62,East,86,0.0,0.0,58,0.00,,,0.00,LWC V2.10 B1702,2013-04-22 00:06:00,
2013-04-21 20:11:00,42.3,29.4,30.63,East,86,0.0,0.0,60,0.00,,,0.00,LWC V2.10 B1702,2013-04-22 00:11:00,
2013-04-21 20:16:00,41.9,29.4,30.63,East,86,0.0,0.0,61,0.00,,,0.00,LWC V2.10 B1702,2013-04-22 00:16:00,
2013-04-21 20:21:00,41.6,29.6,30.63,East,86,0.0,0.0,62,0.00,,,0.00,LWC V2.10 B1702,2013-04-22 00:21:00,
2013-04-21 20:26:00,41.2,29.2,30.63,East,86,0.0,0.0,62,0.00,,,0.00,LWC V2.10 B1702,2013-04-22 00:26:00,
2013-04-21 20:31:00,40.9,29.3,30.63,East,86,0.0,0.0,63,0.00,,,0.00,LWC V2.10 B1702,2013-04-22 00:31:00,
2013-04-21 20:36:00,40.7,29.5,30.64,East,86,0.0,0.0,64,0.00,,,0.00,LWC V2.10 B1702,2013-04-22 00:36:00,
2013-04-21 20:41:00,40.4,29.6,30.64,East,86,0.0,0.0,65,0.00,,,0.00,LWC V2.10 B1702,2013-04-22 00:41:00,
2013-04-21 20:46:00,40.2,29.8,30.64,East,86,0.0,0.0,66,0.00,,,0.00,LWC V2.10 B1702,2013-04-22 00:46:00,
2013-04-21 20:51:00,39.9,29.8,30.65,East,86,0.0,0.0,67,0.00,,,0.00,LWC V2.10 B1702,2013-04-22 00:51:00,
2013-04-21 20:56:00,39.6,29.6,30.65,East,86,0.0,0.0,67,0.00,,,0.00,LWC V2.10 B1702,2013-04-22 00:56:00,
2013-04-21 21:01:00,39.4,29.7,30.65,East,86,0.0,0.0,68,0.00,,,0.00,LWC V2.10 B1702,2013-04-22 01:01:00,
2013-04-21 21:06:00,39.1,29.4,30.65,East,86,0.0,0.0,68,0.00,,,0.00,LWC V2.10 B1702,2013-04-22 01:06:00,
2013-04-21 21:11:00,38.9,29.6,30.66,East,86,0.0,0.0,69,0.00,,,0.00,LWC V2.10 B1702,2013-04-22 01:11:00,
2013-04-21 21:16:00,38.7,29.8,30.66,East,86,0.0,0.0,70,0.00,,,0.00,LWC V2.10 B1702,2013-04-22 01:16:00,
2013-04-21 21:21:00,38.6,29.7,30.66,East,86,0.0,0.0,70,0.00,,,0.00,LWC V2.10 B1702,2013-04-22 01:21:00,
2013-04-21 21:26:00,38.4,29.5,30.66,East,86,0.0,0.0,70,0.00,,,0.00,LWC V2.10 B1702,2013-04-22 01:26:00,
2013-04-21 21:31:00,38.3,29.7,30.66,East,86,0.0,0.0,71,0.00,,,0.00,LWC V2.10 B1702,2013-04-22 01:31:00,
2013-04-21 21:36:00,38.0,29.8,30.66,East,86,0.0,0.0,72,0.00,,,0.00,LWC V2.10 B1702,2013-04-22 01:36:00,
2013-04-21 21:41:00,37.8,29.9,30.66,East,86,0.0,0.0,73,0.00,,,0.00,LWC V2.10 B1702,2013-04-22 01:41:00,
2013-04-21 21:46:00,37.6,29.7,30.66,East,86,0.0,0.0,73,0.00,,,0.00,LWC V2.10 B1702,2013-04-22 01:46:00,
2013-04-21 21:51:00,37.4,29.5,30.66,East,86,0.0,0.0,73,0.00,,,0.00,LWC V2.10 B1702,2013-04-22 01:51:00,
2013-04-21 21:56:00,37.2,29.7,30.66,East,86,0.0,0.0,74,0.00,,,0.00,LWC V2.10 B1702,2013-04-22 01:56:00,
2013-04-21 22:01:00,37.1,29.6,30.66,East,86,0.0,0.0,74,0.00,,,0.00,LWC V2.10 B1702,2013-04-22 02:01:00,
2013-04-21 22:06:00,36.9,29.7,30.66,East,86,0.0,0.0,75,0.00,,,0.00,LWC V2.10 B1702,2013-04-22 02:06:00,
2013-04-21 22:11:00,36.7,29.5,30.66,East,86,0.0,0.0,75,0.00,,,0.00,LWC V2.10 B1702,2013-04-22 02:11:00,
2013-04-21 22:16:00,36.6,29.4,30.66,East,86,0.0,0.0,75,0.00,,,0.00,LWC V2.10 B1702,2013-04-22 02:16:00,
2013-04-21 22:21:00,36.4,29.6,30.66,East,86,0.0,0.0,76,0.00,,,0.00,LWC V2.10 B1702,2013-04-22 02:21:00,
2013-04-21 22:26:00,36.2,29.4,30.66,East,86,0.0,0.0,76,0.00,,,0.00,LWC V2.10 B1702,2013-04-22 02:26:00,
2013-04-21 22:31:00,36.1,29.3,30.66,East,86,0.0,0.0,76,0.00,,,0.00,LWC V2.10 B1702,2013-04-22 02:31:00,
2013-04-21 22:36:00,35.9,29.1,30.66,East,86,0.0,0.0,76,0.00,,,0.00,LWC V2.10 B1702,2013-04-22 02:36:00,
2013-04-21 22:41:00,35.7,28.9,30.66,East,86,0.0,0.0,76,0.00,,,0.00,LWC V2.10 B1702,2013-04-22 02:41:00,
2013-04-21 22:46:00,35.6,28.8,30.66,East,86,0.0,0.0,76,0.00,,,0.00,LWC V2.10 B1702,2013-04-22 02:46:00,
2013-04-21 22:51:00,35.5,29.0,30.66,East,86,0.0,0.0,77,0.00,,,0.00,LWC V2.10 B1702,2013-04-22 02:51:00,
2013-04-21 22:56:00,35.4,28.9,30.67,East,86,1.0,1.0,77,0.00,,,0.00,LWC V2.10 B1702,2013-04-22 02:56:00,
2013-04-21 23:01:00,35.3,28.8,30.67,East,86,0.0,0.0,77,0.00,,,0.00,LWC V2.10 B1702,2013-04-22 03:01:00,
2013-04-21 23:06:00,35.2,29.0,30.67,East,86,0.0,0.0,78,0.00,,,0.00,LWC V2.10 B1702,2013-04-22 03:06:00,
2013-04-21 23:11:00,35.2,29.0,30.66,East,86,0.0,0.0,78,0.00,,,0.00,LWC V2.10 B1702,2013-04-22 03:11:00,
2013-04-21 23:16:00,35.1,29.3,30.67,East,86,0.0,0.0,79,0.00,,,0.00,LWC V2.10 B1702,2013-04-22 03:16:00,
2013-04-21 23:21:00,34.9,28.8,30.67,East,86,0.0,0.0,78,0.00,,,0.00,LWC V2.10 B1702,2013-04-22 03:21:00,
2013-04-21 23:26:00,34.7,28.6,30.67,East,86,0.0,0.0,78,0.00,,,0.00,LWC V2.10 B1702,2013-04-22 03:26:00,
2013-04-21 23:31:00,34.5,28.7,30.67,East,86,0.0,0.0,79,0.00,,,0.00,LWC V2.10 B1702,2013-04-22 03:31:00,
2013-04-21 23:36:00,34.3,28.5,30.67,East,86,0.0,0.0,79,0.00,,,0.00,LWC V2.10 B1702,2013-04-22 03:36:00,
2013-04-21 23:41:00,34.1,28.6,30.67,East,86,0.0,0.0,80,0.00,,,0.00,LWC V2.10 B1702,2013-04-22 03:41:00,
2013-04-21 23:46:00,34.0,28.5,30.67,East,86,0.0,0.0,80,0.00,,,0.00,LWC V2.10 B1702,2013-04-22 03:46:00,
2013-04-21 23:51:00,33.9,28.4,30.67,East,86,0.0,0.0,80,0.00,,,0.00,LWC V2.10 B1702,2013-04-22 03:51:00,
2013-04-21 23:56:00,33.9,28.4,30.67,East,86,0.0,0.0,80,0.00,,,0.00,LWC V2.10 B1702,2013-04-22 03:56:00,